Погода в Хайфоне

Вьетнам     20°51′14″N   106°40′15″E
темп.,
°C
ветер,
м/с
пор.,
м/с
влажн.,
%
обл.,
%
осадки,
мм/ч
давл.,
гПа
погр.,
м
17 августа, ср
ср1701:00+28ююв238599 0.7 100582
04:00+27ююв1285100 1.3 1004149
07:00+29в1283100 1.3 1005221
10:00+31юв2269100 0.0 1006926
13:00+32юв326647 0.0 1004943
16:00+31юв446826 0.0 1002693
19:00+28вюв348012 0.0 1003177
22:00+28юв34835 0.0 1005200
18 августа, чт
чт1801:00+28юв34865 1.2 1004157
04:00+28юв12855 0.1 1003150
07:00+29в23810 0.1 1004289
10:00+31юв216730 0.1 10041017
13:00+32юв32666 0.4 1002935
16:00+31юв43696 0.0 1001564
19:00+29вюв358054 0.0 1002176
22:00+29юв358466 0.0 1004201
19 августа, пт
пт1901:00+28ююв2488100 1.4 1002161
04:00+28юв118329 1.2 1002136
07:00+29всв1283100 1.2 1003189
10:00+31всв1169100 0.0 1003703
13:00+31в226797 0.0 1001716
16:00+32юв33665 0.0 1000668
19:00+29вюв35815 0.3 1002179
22:00+28в358599 0.3 1003197
20 августа, сб
сб2001:00+27в358797 3.9 1002140
04:00+27всв3487100 3.2 1001108
07:00+28в23838 5.4 1002194
10:00+31всв33665 0.8 1003846
13:00+32в446113 0.9 10001134
16:00+31вюв436679 0.7 999809
19:00+29вюв347880 0.9 1000198
22:00+28вюв348526 1.7 1001137
21 августа, вс
вс2101:00+27в348664 7.9 1000125
04:00+27в3489100 4.7 1000165
07:00+27всв358723 8.3 1001262
10:00+29всв458163 3.1 1001703
13:00+30вюв567723 5.8 1000973
16:00+30вюв457311 0.7 999965
19:00+28юв358179 0.8 1000276
22:00+27ю3487100 1.0 1002161